owner,sensor,date,latitude,longitude,air_temperature,qcFlag 
COMPS,ioos:station:USF.COMPS:ANC:1,2009-08-08T21:00:00Z,28.1930,-82.7890,30.59,1111122 
COMPS,ioos:station:USF.COMPS:ANC:1,2009-08-08T21:06:00Z,28.1930,-82.7890,30.6,1111122 
COMPS,ioos:station:USF.COMPS:ANC:1,2009-08-08T21:12:00Z,28.1930,-82.7890,30.59,1111122 
COMPS,ioos:station:USF.COMPS:ANC:1,2009-08-08T21:18:00Z,28.1930,-82.7890,30.6,1111122 
COMPS,ioos:station:USF.COMPS:ANC:1,2009-08-08T21:24:00Z,28.1930,-82.7890,30.61,1111122 
COMPS,ioos:station:USF.COMPS:ANC:1,2009-08-08T21:30:00Z,28.1930,-82.7890,30.64,1111122 
COMPS,ioos:station:USF.COMPS:ANC:1,2009-08-08T21:36:00Z,28.1930,-82.7890,30.7,1111122 
COMPS,ioos:station:USF.COMPS:ANC:1,2009-08-08T21:42:00Z,28.1930,-82.7890,30.72,1111122 
COMPS,ioos:station:USF.COMPS:ANC:1,2009-08-08T21:48:00Z,28.1930,-82.7890,30.71,1111122 
COMPS,ioos:station:USF.COMPS:ANC:1,2009-08-08T21:54:00Z,28.1930,-82.7890,30.64,1111122 
COMPS,ioos:station:USF.COMPS:ANC:1,2009-08-08T22:00:00Z,28.1930,-82.7890,30.62,1111122 
COMPS,ioos:station:USF.COMPS:ANC:1,2009-08-08T22:06:00Z,28.1930,-82.7890,30.71,1111122 
COMPS,ioos:station:USF.COMPS:ANC:1,2009-08-08T22:12:00Z,28.1930,-82.7890,30.79,1111122 
COMPS,ioos:station:USF.COMPS:ANC:1,2009-08-08T22:18:00Z,28.1930,-82.7890,30.82,1111122 
COMPS,ioos:station:USF.COMPS:ANC:1,2009-08-08T22:24:00Z,28.1930,-82.7890,29.06,1111122 
COMPS,ioos:station:USF.COMPS:ANC:1,2009-08-08T22:30:00Z,28.1930,-82.7890,27.11,1111122 
COMPS,ioos:station:USF.COMPS:ANC:1,2009-08-08T22:36:00Z,28.1930,-82.7890,25.98,1111122 
COMPS,ioos:station:USF.COMPS:ANC:1,2009-08-08T22:42:00Z,28.1930,-82.7890,25.87,1111122 
COMPS,ioos:station:USF.COMPS:ANC:1,2009-08-08T22:48:00Z,28.1930,-82.7890,25.8,1111122 
COMPS,ioos:station:USF.COMPS:ANC:1,2009-08-08T22:54:00Z,28.1930,-82.7890,25.74,1111122 
COMPS,ioos:station:USF.COMPS:ANC:1,2009-08-08T23:00:00Z,28.1930,-82.7890,25.33,1111122 
COMPS,ioos:station:USF.COMPS:ANC:1,2009-08-08T23:06:00Z,28.1930,-82.7890,25.45,1111122 
COMPS,ioos:station:USF.COMPS:ANC:1,2009-08-08T23:12:00Z,28.1930,-82.7890,25.32,1111122 
COMPS,ioos:station:USF.COMPS:ANC:1,2009-08-08T23:18:00Z,28.1930,-82.7890,25.28,1111122 
COMPS,ioos:station:USF.COMPS:ANC:1,2009-08-08T23:24:00Z,28.1930,-82.7890,26.03,1111122 
COMPS,ioos:station:USF.COMPS:ANC:1,2009-08-08T23:30:00Z,28.1930,-82.7890,25.6,1111122 
COMPS,ioos:station:USF.COMPS:ANC:1,2009-08-08T23:36:00Z,28.1930,-82.7890,25.3,1111122 
COMPS,ioos:station:USF.COMPS:ANC:1,2009-08-08T23:42:00Z,28.1930,-82.7890,25.08,1111122 
COMPS,ioos:station:USF.COMPS:ANC:1,2009-08-08T23:48:00Z,28.1930,-82.7890,24.9,1111122 
COMPS,ioos:station:USF.COMPS:ANC:1,2009-08-08T23:54:00Z,28.1930,-82.7890,24.93,1111122 
COMPS,ioos:station:USF.COMPS:ANC:1,2009-08-09T00:00:00Z,28.1930,-82.7890,24.82,1111122 
COMPS,ioos:station:USF.COMPS:ANC:1,2009-08-09T00:06:00Z,28.1930,-82.7890,24.65,1111122 
COMPS,ioos:station:USF.COMPS:ANC:1,2009-08-09T00:12:00Z,28.1930,-82.7890,24.68,1111122 
COMPS,ioos:station:USF.COMPS:ANC:1,2009-08-09T00:18:00Z,28.1930,-82.7890,24.78,1111122 
COMPS,ioos:station:USF.COMPS:ANC:1,2009-08-09T00:24:00Z,28.1930,-82.7890,25.22,1111122 
COMPS,ioos:station:USF.COMPS:ANC:1,2009-08-09T00:30:00Z,28.1930,-82.7890,25.04,1111122 
COMPS,ioos:station:USF.COMPS:ANC:1,2009-08-09T00:36:00Z,28.1930,-82.7890,24.93,1111122 
COMPS,ioos:station:USF.COMPS:ANC:1,2009-08-09T00:42:00Z,28.1930,-82.7890,24.95,1111122 
COMPS,ioos:station:USF.COMPS:ANC:1,2009-08-09T00:48:00Z,28.1930,-82.7890,24.99,1111122 
COMPS,ioos:station:USF.COMPS:ANC:1,2009-08-09T00:54:00Z,28.1930,-82.7890,24.99,1111122 
COMPS,ioos:station:USF.COMPS:ANC:1,2009-08-09T01:00:00Z,28.1930,-82.7890,25.0,1111122 
COMPS,ioos:station:USF.COMPS:ANC:1,2009-08-09T01:06:00Z,28.1930,-82.7890,25.18,1111122 
COMPS,ioos:station:USF.COMPS:ANC:1,2009-08-09T01:12:00Z,28.1930,-82.7890,25.15,1111122 
COMPS,ioos:station:USF.COMPS:ANC:1,2009-08-09T01:18:00Z,28.1930,-82.7890,25.14,1111122 
COMPS,ioos:station:USF.COMPS:ANC:1,2009-08-09T01:24:00Z,28.1930,-82.7890,25.44,1111122 
COMPS,ioos:station:USF.COMPS:ANC:1,2009-08-09T01:30:00Z,28.1930,-82.7890,25.29,1111122 
COMPS,ioos:station:USF.COMPS:ANC:1,2009-08-09T01:36:00Z,28.1930,-82.7890,25.3,1111122 
COMPS,ioos:station:USF.COMPS:ANC:1,2009-08-09T01:42:00Z,28.1930,-82.7890,25.12,1111122 
COMPS,ioos:station:USF.COMPS:ANC:1,2009-08-09T01:48:00Z,28.1930,-82.7890,25.21,1111122 
COMPS,ioos:station:USF.COMPS:ANC:1,2009-08-09T01:54:00Z,28.1930,-82.7890,25.27,1111122 
COMPS,ioos:station:USF.COMPS:ANC:1,2009-08-09T02:00:00Z,28.1930,-82.7890,25.39,1111122 
COMPS,ioos:station:USF.COMPS:ANC:1,2009-08-09T02:06:00Z,28.1930,-82.7890,25.27,1111122 
COMPS,ioos:station:USF.COMPS:ANC:1,2009-08-09T02:12:00Z,28.1930,-82.7890,25.24,1111122 
COMPS,ioos:station:USF.COMPS:ANC:1,2009-08-09T02:18:00Z,28.1930,-82.7890,25.26,1111122 
COMPS,ioos:station:USF.COMPS:ANC:1,2009-08-09T02:24:00Z,28.1930,-82.7890,25.85,1111122 
COMPS,ioos:station:USF.COMPS:ANC:1,2009-08-09T02:30:00Z,28.1930,-82.7890,25.39,1111122 
COMPS,ioos:station:USF.COMPS:ANC:1,2009-08-09T02:36:00Z,28.1930,-82.7890,25.42,1111122 
COMPS,ioos:station:USF.COMPS:ANC:1,2009-08-09T02:42:00Z,28.1930,-82.7890,25.57,1111122 
COMPS,ioos:station:USF.COMPS:ANC:1,2009-08-09T02:48:00Z,28.1930,-82.7890,25.73,1111122 
COMPS,ioos:station:USF.COMPS:ANC:1,2009-08-09T02:54:00Z,28.1930,-82.7890,25.75,1111122 
COMPS,ioos:station:USF.COMPS:ANC:1,2009-08-09T03:00:00Z,28.1930,-82.7890,25.79,1111122 
COMPS,ioos:station:USF.COMPS:ANC:1,2009-08-09T03:06:00Z,28.1930,-82.7890,25.79,1111122 
COMPS,ioos:station:USF.COMPS:ANC:1,2009-08-09T03:12:00Z,28.1930,-82.7890,25.83,1111122 
COMPS,ioos:station:USF.COMPS:ANC:1,2009-08-09T03:18:00Z,28.1930,-82.7890,25.93,1111122 
COMPS,ioos:station:USF.COMPS:ANC:1,2009-08-09T03:24:00Z,28.1930,-82.7890,26.14,1111122 
COMPS,ioos:station:USF.COMPS:ANC:1,2009-08-09T03:30:00Z,28.1930,-82.7890,25.79,1111122 
COMPS,ioos:station:USF.COMPS:ANC:1,2009-08-09T03:36:00Z,28.1930,-82.7890,25.76,1111122 
COMPS,ioos:station:USF.COMPS:ANC:1,2009-08-09T03:42:00Z,28.1930,-82.7890,25.7,1111122 
COMPS,ioos:station:USF.COMPS:ANC:1,2009-08-09T03:48:00Z,28.1930,-82.7890,25.61,1111122 
COMPS,ioos:station:USF.COMPS:ANC:1,2009-08-09T03:54:00Z,28.1930,-82.7890,25.53,1111122 
COMPS,ioos:station:USF.COMPS:ANC:1,2009-08-09T05:00:00Z,28.1930,-82.7890,25.38,1111122 
COMPS,ioos:station:USF.COMPS:ANC:1,2009-08-09T05:06:00Z,28.1930,-82.7890,25.32,1111122 
COMPS,ioos:station:USF.COMPS:ANC:1,2009-08-09T05:12:00Z,28.1930,-82.7890,25.25,1111122 
COMPS,ioos:station:USF.COMPS:ANC:1,2009-08-09T05:18:00Z,28.1930,-82.7890,25.26,1111122 
COMPS,ioos:station:USF.COMPS:ANC:1,2009-08-09T05:24:00Z,28.1930,-82.7890,25.54,1111122 
COMPS,ioos:station:USF.COMPS:ANC:1,2009-08-09T05:30:00Z,28.1930,-82.7890,25.25,1111122 
COMPS,ioos:station:USF.COMPS:ANC:1,2009-08-09T05:36:00Z,28.1930,-82.7890,25.26,1111122 
COMPS,ioos:station:USF.COMPS:ANC:1,2009-08-09T05:42:00Z,28.1930,-82.7890,25.25,1111122 
COMPS,ioos:station:USF.COMPS:ANC:1,2009-08-09T05:48:00Z,28.1930,-82.7890,25.36,1111122 
COMPS,ioos:station:USF.COMPS:ANC:1,2009-08-09T05:54:00Z,28.1930,-82.7890,25.38,1111122 
COMPS,ioos:station:USF.COMPS:ANC:1,2009-08-09T06:00:00Z,28.1930,-82.7890,25.38,1111122 
COMPS,ioos:station:USF.COMPS:ANC:1,2009-08-09T06:06:00Z,28.1930,-82.7890,25.37,1111122 
COMPS,ioos:station:USF.COMPS:ANC:1,2009-08-09T06:12:00Z,28.1930,-82.7890,25.32,1111122 
COMPS,ioos:station:USF.COMPS:ANC:1,2009-08-09T06:18:00Z,28.1930,-82.7890,25.33,1111122 
COMPS,ioos:station:USF.COMPS:ANC:1,2009-08-09T06:24:00Z,28.1930,-82.7890,25.41,1111122 
COMPS,ioos:station:USF.COMPS:ANC:1,2009-08-09T06:30:00Z,28.1930,-82.7890,25.25,1111122 
COMPS,ioos:station:USF.COMPS:ANC:1,2009-08-09T06:36:00Z,28.1930,-82.7890,25.29,1111122 
COMPS,ioos:station:USF.COMPS:ANC:1,2009-08-09T06:42:00Z,28.1930,-82.7890,25.36,1111122 
COMPS,ioos:station:USF.COMPS:ANC:1,2009-08-09T06:48:00Z,28.1930,-82.7890,25.27,1111122 
COMPS,ioos:station:USF.COMPS:ANC:1,2009-08-09T06:54:00Z,28.1930,-82.7890,25.25,1111122 
COMPS,ioos:station:USF.COMPS:ANC:1,2009-08-09T07:00:00Z,28.1930,-82.7890,25.25,1111122 
COMPS,ioos:station:USF.COMPS:ANC:1,2009-08-09T07:06:00Z,28.1930,-82.7890,25.24,1111122 
COMPS,ioos:station:USF.COMPS:ANC:1,2009-08-09T07:12:00Z,28.1930,-82.7890,25.11,1111122 
COMPS,ioos:station:USF.COMPS:ANC:1,2009-08-09T07:18:00Z,28.1930,-82.7890,25.12,1111122 
COMPS,ioos:station:USF.COMPS:ANC:1,2009-08-09T07:24:00Z,28.1930,-82.7890,25.35,1111122 
COMPS,ioos:station:USF.COMPS:ANC:1,2009-08-09T07:30:00Z,28.1930,-82.7890,25.11,1111122 
COMPS,ioos:station:USF.COMPS:ANC:1,2009-08-09T07:36:00Z,28.1930,-82.7890,25.02,1111122 
COMPS,ioos:station:USF.COMPS:ANC:1,2009-08-09T07:42:00Z,28.1930,-82.7890,24.98,1111122 
COMPS,ioos:station:USF.COMPS:ANC:1,2009-08-09T07:48:00Z,28.1930,-82.7890,24.98,1111122 
COMPS,ioos:station:USF.COMPS:ANC:1,2009-08-09T07:54:00Z,28.1930,-82.7890,25.04,1111122 
COMPS,ioos:station:USF.COMPS:ANC:1,2009-08-09T08:00:00Z,28.1930,-82.7890,25.05,1111122 
COMPS,ioos:station:USF.COMPS:ANC:1,2009-08-09T08:06:00Z,28.1930,-82.7890,25.02,1111122 
COMPS,ioos:station:USF.COMPS:ANC:1,2009-08-09T08:12:00Z,28.1930,-82.7890,25.05,1111122 
COMPS,ioos:station:USF.COMPS:ANC:1,2009-08-09T08:18:00Z,28.1930,-82.7890,25.11,1111122 
COMPS,ioos:station:USF.COMPS:ANC:1,2009-08-09T08:24:00Z,28.1930,-82.7890,25.27,1111122 
COMPS,ioos:station:USF.COMPS:ANC:1,2009-08-09T08:30:00Z,28.1930,-82.7890,24.99,1111122 
COMPS,ioos:station:USF.COMPS:ANC:1,2009-08-09T08:36:00Z,28.1930,-82.7890,24.98,1111122 
COMPS,ioos:station:USF.COMPS:ANC:1,2009-08-09T08:42:00Z,28.1930,-82.7890,24.98,1111122 
COMPS,ioos:station:USF.COMPS:ANC:1,2009-08-09T08:48:00Z,28.1930,-82.7890,24.99,1111122 
COMPS,ioos:station:USF.COMPS:ANC:1,2009-08-09T08:54:00Z,28.1930,-82.7890,24.93,1111122 
COMPS,ioos:station:USF.COMPS:ANC:1,2009-08-09T09:00:00Z,28.1930,-82.7890,24.86,1111122 
COMPS,ioos:station:USF.COMPS:ANC:1,2009-08-09T09:06:00Z,28.1930,-82.7890,24.92,1111122 
COMPS,ioos:station:USF.COMPS:ANC:1,2009-08-09T09:12:00Z,28.1930,-82.7890,24.93,1111122 
COMPS,ioos:station:USF.COMPS:ANC:1,2009-08-09T09:18:00Z,28.1930,-82.7890,24.84,1111122 
COMPS,ioos:station:USF.COMPS:ANC:1,2009-08-09T09:24:00Z,28.1930,-82.7890,25.03,1111122 
COMPS,ioos:station:USF.COMPS:ANC:1,2009-08-09T09:30:00Z,28.1930,-82.7890,24.84,1111122 
COMPS,ioos:station:USF.COMPS:ANC:1,2009-08-09T09:36:00Z,28.1930,-82.7890,24.85,1111122 
COMPS,ioos:station:USF.COMPS:ANC:1,2009-08-09T09:42:00Z,28.1930,-82.7890,24.84,1111122 
COMPS,ioos:station:USF.COMPS:ANC:1,2009-08-09T09:48:00Z,28.1930,-82.7890,24.71,1111122 
COMPS,ioos:station:USF.COMPS:ANC:1,2009-08-09T09:54:00Z,28.1930,-82.7890,24.71,1111122 
COMPS,ioos:station:USF.COMPS:ANC:1,2009-08-09T10:00:00Z,28.1930,-82.7890,24.7,1111122 
COMPS,ioos:station:USF.COMPS:ANC:1,2009-08-09T10:06:00Z,28.1930,-82.7890,24.68,1111122 
COMPS,ioos:station:USF.COMPS:ANC:1,2009-08-09T10:12:00Z,28.1930,-82.7890,24.7,1111122 
COMPS,ioos:station:USF.COMPS:ANC:1,2009-08-09T10:18:00Z,28.1930,-82.7890,24.67,1111122 
COMPS,ioos:station:USF.COMPS:ANC:1,2009-08-09T10:24:00Z,28.1930,-82.7890,24.83,1111122 
COMPS,ioos:station:USF.COMPS:ANC:1,2009-08-09T10:30:00Z,28.1930,-82.7890,24.7,1111122 
COMPS,ioos:station:USF.COMPS:ANC:1,2009-08-09T10:36:00Z,28.1930,-82.7890,24.57,1111122 
COMPS,ioos:station:USF.COMPS:ANC:1,2009-08-09T10:42:00Z,28.1930,-82.7890,24.6,1111122 
COMPS,ioos:station:USF.COMPS:ANC:1,2009-08-09T10:48:00Z,28.1930,-82.7890,24.57,1111122 
COMPS,ioos:station:USF.COMPS:ANC:1,2009-08-09T10:54:00Z,28.1930,-82.7890,24.57,1111122 
COMPS,ioos:station:USF.COMPS:ANC:1,2009-08-09T11:00:00Z,28.1930,-82.7890,24.57,1111122 
COMPS,ioos:station:USF.COMPS:ANC:1,2009-08-09T11:06:00Z,28.1930,-82.7890,24.57,1111122 
COMPS,ioos:station:USF.COMPS:ANC:1,2009-08-09T11:12:00Z,28.1930,-82.7890,24.58,1111122 
COMPS,ioos:station:USF.COMPS:ANC:1,2009-08-09T11:18:00Z,28.1930,-82.7890,24.75,1111122 
COMPS,ioos:station:USF.COMPS:ANC:1,2009-08-09T11:24:00Z,28.1930,-82.7890,25.0,1111122 
COMPS,ioos:station:USF.COMPS:ANC:1,2009-08-09T11:30:00Z,28.1930,-82.7890,24.86,1111122 
COMPS,ioos:station:USF.COMPS:ANC:1,2009-08-09T11:36:00Z,28.1930,-82.7890,24.97,1111122 
COMPS,ioos:station:USF.COMPS:ANC:1,2009-08-09T11:42:00Z,28.1930,-82.7890,25.07,1111122 
COMPS,ioos:station:USF.COMPS:ANC:1,2009-08-09T11:48:00Z,28.1930,-82.7890,25.22,1111122 
COMPS,ioos:station:USF.COMPS:ANC:1,2009-08-09T11:54:00Z,28.1930,-82.7890,25.31,1111122 
COMPS,ioos:station:USF.COMPS:ANC:1,2009-08-09T12:00:00Z,28.1930,-82.7890,25.52,1111122 
COMPS,ioos:station:USF.COMPS:ANC:1,2009-08-09T12:06:00Z,28.1930,-82.7890,25.68,1111122 
COMPS,ioos:station:USF.COMPS:ANC:1,2009-08-09T12:12:00Z,28.1930,-82.7890,25.87,1111122 
COMPS,ioos:station:USF.COMPS:ANC:1,2009-08-09T12:18:00Z,28.1930,-82.7890,26.0,1111122 
COMPS,ioos:station:USF.COMPS:ANC:1,2009-08-09T12:24:00Z,28.1930,-82.7890,26.39,1111122 
COMPS,ioos:station:USF.COMPS:ANC:1,2009-08-09T12:30:00Z,28.1930,-82.7890,26.38,1111122 
COMPS,ioos:station:USF.COMPS:ANC:1,2009-08-09T12:36:00Z,28.1930,-82.7890,26.6,1111122 
COMPS,ioos:station:USF.COMPS:ANC:1,2009-08-09T12:42:00Z,28.1930,-82.7890,26.68,1111122 
COMPS,ioos:station:USF.COMPS:ANC:1,2009-08-09T12:48:00Z,28.1930,-82.7890,26.8,1111122 
COMPS,ioos:station:USF.COMPS:ANC:1,2009-08-09T12:54:00Z,28.1930,-82.7890,27.07,1111122 
COMPS,ioos:station:USF.COMPS:ANC:1,2009-08-09T13:00:00Z,28.1930,-82.7890,27.11,1111122 
COMPS,ioos:station:USF.COMPS:ANC:1,2009-08-09T13:06:00Z,28.1930,-82.7890,27.35,1111122 
COMPS,ioos:station:USF.COMPS:ANC:1,2009-08-09T13:12:00Z,28.1930,-82.7890,27.51,1111122 
COMPS,ioos:station:USF.COMPS:ANC:1,2009-08-09T13:18:00Z,28.1930,-82.7890,27.65,1111122 
COMPS,ioos:station:USF.COMPS:ANC:1,2009-08-09T13:24:00Z,28.1930,-82.7890,28.14,1111122 
COMPS,ioos:station:USF.COMPS:ANC:1,2009-08-09T13:30:00Z,28.1930,-82.7890,28.07,1111122 
COMPS,ioos:station:USF.COMPS:ANC:1,2009-08-09T13:36:00Z,28.1930,-82.7890,28.04,1111122 
COMPS,ioos:station:USF.COMPS:ANC:1,2009-08-09T13:42:00Z,28.1930,-82.7890,28.3,1111122 
COMPS,ioos:station:USF.COMPS:ANC:1,2009-08-09T13:48:00Z,28.1930,-82.7890,28.54,1111122 
COMPS,ioos:station:USF.COMPS:ANC:1,2009-08-09T13:54:00Z,28.1930,-82.7890,28.43,1111122 
COMPS,ioos:station:USF.COMPS:ANC:1,2009-08-09T14:00:00Z,28.1930,-82.7890,28.47,1111122 
COMPS,ioos:station:USF.COMPS:ANC:1,2009-08-09T14:06:00Z,28.1930,-82.7890,28.65,1111122 
COMPS,ioos:station:USF.COMPS:ANC:1,2009-08-09T14:12:00Z,28.1930,-82.7890,28.68,1111122 
COMPS,ioos:station:USF.COMPS:ANC:1,2009-08-09T14:18:00Z,28.1930,-82.7890,28.68,1111122 
COMPS,ioos:station:USF.COMPS:ANC:1,2009-08-09T14:24:00Z,28.1930,-82.7890,28.88,1111122 
COMPS,ioos:station:USF.COMPS:ANC:1,2009-08-09T14:30:00Z,28.1930,-82.7890,28.93,1111122 
COMPS,ioos:station:USF.COMPS:ANC:1,2009-08-09T14:36:00Z,28.1930,-82.7890,28.98,1111122 
COMPS,ioos:station:USF.COMPS:ANC:1,2009-08-09T14:42:00Z,28.1930,-82.7890,29.14,1111122 
COMPS,ioos:station:USF.COMPS:ANC:1,2009-08-09T14:48:00Z,28.1930,-82.7890,29.38,1111122 
COMPS,ioos:station:USF.COMPS:ANC:1,2009-08-09T14:54:00Z,28.1930,-82.7890,29.35,1111122 
COMPS,ioos:station:USF.COMPS:ANC:1,2009-08-09T15:00:00Z,28.1930,-82.7890,29.37,1111122 
COMPS,ioos:station:USF.COMPS:ANC:1,2009-08-09T15:06:00Z,28.1930,-82.7890,29.34,1111122 
COMPS,ioos:station:USF.COMPS:ANC:1,2009-08-09T15:12:00Z,28.1930,-82.7890,29.72,1111122 
COMPS,ioos:station:USF.COMPS:ANC:1,2009-08-09T15:18:00Z,28.1930,-82.7890,29.75,1111122 
COMPS,ioos:station:USF.COMPS:ANC:1,2009-08-09T15:24:00Z,28.1930,-82.7890,30.01,1111122 
COMPS,ioos:station:USF.COMPS:ANC:1,2009-08-09T15:30:00Z,28.1930,-82.7890,29.91,1111122 
COMPS,ioos:station:USF.COMPS:ANC:1,2009-08-09T15:36:00Z,28.1930,-82.7890,30.06,1111122 
COMPS,ioos:station:USF.COMPS:ANC:1,2009-08-09T15:42:00Z,28.1930,-82.7890,30.16,1111122 
COMPS,ioos:station:USF.COMPS:ANC:1,2009-08-09T15:48:00Z,28.1930,-82.7890,30.32,1111122 
COMPS,ioos:station:USF.COMPS:ANC:1,2009-08-09T15:54:00Z,28.1930,-82.7890,29.95,1111122 
COMPS,ioos:station:USF.COMPS:ANC:1,2009-08-09T16:00:00Z,28.1930,-82.7890,30.07,1111122 
COMPS,ioos:station:USF.COMPS:ANC:1,2009-08-09T16:06:00Z,28.1930,-82.7890,30.23,1111122 
COMPS,ioos:station:USF.COMPS:ANC:1,2009-08-09T16:12:00Z,28.1930,-82.7890,30.74,1111122 
COMPS,ioos:station:USF.COMPS:ANC:1,2009-08-09T16:18:00Z,28.1930,-82.7890,30.1,1111122 
COMPS,ioos:station:USF.COMPS:ANC:1,2009-08-09T16:24:00Z,28.1930,-82.7890,30.18,1111122 
COMPS,ioos:station:USF.COMPS:ANC:1,2009-08-09T16:30:00Z,28.1930,-82.7890,30.0,1111122 
COMPS,ioos:station:USF.COMPS:ANC:1,2009-08-09T16:36:00Z,28.1930,-82.7890,29.91,1111122 
COMPS,ioos:station:USF.COMPS:ANC:1,2009-08-09T16:42:00Z,28.1930,-82.7890,30.01,1111122 
COMPS,ioos:station:USF.COMPS:ANC:1,2009-08-09T16:48:00Z,28.1930,-82.7890,29.86,1111122 
COMPS,ioos:station:USF.COMPS:ANC:1,2009-08-09T16:54:00Z,28.1930,-82.7890,29.79,1111122 
COMPS,ioos:station:USF.COMPS:ANC:1,2009-08-09T17:00:00Z,28.1930,-82.7890,29.78,1111122 
COMPS,ioos:station:USF.COMPS:ANC:1,2009-08-09T17:06:00Z,28.1930,-82.7890,29.8,1111122 
COMPS,ioos:station:USF.COMPS:ANC:1,2009-08-09T17:12:00Z,28.1930,-82.7890,29.84,1111122 
COMPS,ioos:station:USF.COMPS:ANC:1,2009-08-09T17:18:00Z,28.1930,-82.7890,29.74,1111122 
COMPS,ioos:station:USF.COMPS:ANC:1,2009-08-09T17:24:00Z,28.1930,-82.7890,29.96,1111122 
COMPS,ioos:station:USF.COMPS:ANC:1,2009-08-09T17:30:00Z,28.1930,-82.7890,29.81,1111122 
COMPS,ioos:station:USF.COMPS:ANC:1,2009-08-09T17:36:00Z,28.1930,-82.7890,29.87,1111122 
COMPS,ioos:station:USF.COMPS:ANC:1,2009-08-09T17:42:00Z,28.1930,-82.7890,29.9,1111122 
COMPS,ioos:station:USF.COMPS:ANC:1,2009-08-09T17:48:00Z,28.1930,-82.7890,29.96,1111122 
COMPS,ioos:station:USF.COMPS:ANC:1,2009-08-09T17:54:00Z,28.1930,-82.7890,29.88,1111122 
COMPS,ioos:station:USF.COMPS:ANC:1,2009-08-09T18:00:00Z,28.1930,-82.7890,29.99,1111122 
COMPS,ioos:station:USF.COMPS:ANC:1,2009-08-09T18:06:00Z,28.1930,-82.7890,30.06,1111122 
COMPS,ioos:station:USF.COMPS:ANC:1,2009-08-09T18:12:00Z,28.1930,-82.7890,30.06,1111122 
COMPS,ioos:station:USF.COMPS:ANC:1,2009-08-09T18:18:00Z,28.1930,-82.7890,30.09,1111122 
COMPS,ioos:station:USF.COMPS:ANC:1,2009-08-09T18:24:00Z,28.1930,-82.7890,30.43,1111122 
COMPS,ioos:station:USF.COMPS:ANC:1,2009-08-09T18:30:00Z,28.1930,-82.7890,30.28,1111122 
COMPS,ioos:station:USF.COMPS:ANC:1,2009-08-09T18:36:00Z,28.1930,-82.7890,30.37,1111122 
COMPS,ioos:station:USF.COMPS:ANC:1,2009-08-09T18:42:00Z,28.1930,-82.7890,30.37,1111122 
COMPS,ioos:station:USF.COMPS:ANC:1,2009-08-09T18:48:00Z,28.1930,-82.7890,30.39,1111122 
COMPS,ioos:station:USF.COMPS:ANC:1,2009-08-09T18:54:00Z,28.1930,-82.7890,30.45,1111122 
COMPS,ioos:station:USF.COMPS:ANC:1,2009-08-09T19:00:00Z,28.1930,-82.7890,30.52,1111122 
COMPS,ioos:station:USF.COMPS:ANC:1,2009-08-09T19:06:00Z,28.1930,-82.7890,30.48,1111122 
COMPS,ioos:station:USF.COMPS:ANC:1,2009-08-09T19:12:00Z,28.1930,-82.7890,30.47,1111122 
COMPS,ioos:station:USF.COMPS:ANC:1,2009-08-09T19:18:00Z,28.1930,-82.7890,30.58,1111122 
COMPS,ioos:station:USF.COMPS:ANC:1,2009-08-09T19:24:00Z,28.1930,-82.7890,30.91,1111122 
COMPS,ioos:station:USF.COMPS:ANC:1,2009-08-09T19:30:00Z,28.1930,-82.7890,30.7,1111122 
COMPS,ioos:station:USF.COMPS:ANC:1,2009-08-09T19:36:00Z,28.1930,-82.7890,30.7,1111122 
COMPS,ioos:station:USF.COMPS:ANC:1,2009-08-09T19:42:00Z,28.1930,-82.7890,30.67,1111122 
COMPS,ioos:station:USF.COMPS:ANC:1,2009-08-09T19:48:00Z,28.1930,-82.7890,30.7,1111122 
COMPS,ioos:station:USF.COMPS:ANC:1,2009-08-09T19:54:00Z,28.1930,-82.7890,30.85,1111122 
COMPS,ioos:station:USF.COMPS:ANC:1,2009-08-09T20:00:00Z,28.1930,-82.7890,30.69,1111122 
COMPS,ioos:station:USF.COMPS:ANC:1,2009-08-09T20:06:00Z,28.1930,-82.7890,30.76,1111122 
COMPS,ioos:station:USF.COMPS:ANC:1,2009-08-09T20:12:00Z,28.1930,-82.7890,30.77,1111122 
COMPS,ioos:station:USF.COMPS:ANC:1,2009-08-09T20:18:00Z,28.1930,-82.7890,30.9,1111122 
COMPS,ioos:station:USF.COMPS:ANC:1,2009-08-09T20:24:00Z,28.1930,-82.7890,30.95,1111122 
COMPS,ioos:station:USF.COMPS:ANC:1,2009-08-09T20:30:00Z,28.1930,-82.7890,30.83,1111122 
COMPS,ioos:station:USF.COMPS:ANC:1,2009-08-09T20:36:00Z,28.1930,-82.7890,30.89,1111122 
COMPS,ioos:station:USF.COMPS:ANC:1,2009-08-09T20:42:00Z,28.1930,-82.7890,30.98,1111122 
COMPS,ioos:station:USF.COMPS:ANC:1,2009-08-09T20:48:00Z,28.1930,-82.7890,30.88,1111122 
COMPS,ioos:station:USF.COMPS:ANC:1,2009-08-09T20:54:00Z,28.1930,-82.7890,30.93,1111122 
COMPS,ioos:station:USF.COMPS:ANC:1,2009-08-09T21:00:00Z,28.1930,-82.7890,30.95,1111122 
COMPS,ioos:station:USF.COMPS:ANC:1,2009-08-09T21:06:00Z,28.1930,-82.7890,31.05,1111122 
COMPS,ioos:station:USF.COMPS:ANC:1,2009-08-09T21:12:00Z,28.1930,-82.7890,31.02,1111122 
COMPS,ioos:station:USF.COMPS:ANC:1,2009-08-09T21:18:00Z,28.1930,-82.7890,30.94,1111122 
COMPS,ioos:station:USF.COMPS:ANC:1,2009-08-09T21:24:00Z,28.1930,-82.7890,31.27,1111122 
COMPS,ioos:station:USF.COMPS:ANC:1,2009-08-09T21:30:00Z,28.1930,-82.7890,31.08,1111122 
COMPS,ioos:station:USF.COMPS:ANC:1,2009-08-09T21:36:00Z,28.1930,-82.7890,31.11,1111122 
COMPS,ioos:station:USF.COMPS:ANC:1,2009-08-09T21:42:00Z,28.1930,-82.7890,31.05,1111122 
COMPS,ioos:station:USF.COMPS:ANC:1,2009-08-09T21:48:00Z,28.1930,-82.7890,31.08,1111122 
COMPS,ioos:station:USF.COMPS:ANC:1,2009-08-09T21:54:00Z,28.1930,-82.7890,31.15,1111122 
COMPS,ioos:station:USF.COMPS:ANC:1,2009-08-09T22:00:00Z,28.1930,-82.7890,31.14,1111122 
COMPS,ioos:station:USF.COMPS:ANC:1,2009-08-09T22:06:00Z,28.1930,-82.7890,31.15,1111122 
COMPS,ioos:station:USF.COMPS:ANC:1,2009-08-09T22:12:00Z,28.1930,-82.7890,31.16,1111122 
COMPS,ioos:station:USF.COMPS:ANC:1,2009-08-09T22:18:00Z,28.1930,-82.7890,31.12,1111122 
COMPS,ioos:station:USF.COMPS:ANC:1,2009-08-09T22:24:00Z,28.1930,-82.7890,31.33,1111122 
COMPS,ioos:station:USF.COMPS:ANC:1,2009-08-09T22:30:00Z,28.1930,-82.7890,31.21,1111122 
COMPS,ioos:station:USF.COMPS:ANC:1,2009-08-09T22:36:00Z,28.1930,-82.7890,31.28,1111122 
COMPS,ioos:station:USF.COMPS:ANC:1,2009-08-09T22:42:00Z,28.1930,-82.7890,31.25,1111122 
COMPS,ioos:station:USF.COMPS:ANC:1,2009-08-09T22:48:00Z,28.1930,-82.7890,31.41,1111122 
COMPS,ioos:station:USF.COMPS:ANC:1,2009-08-09T22:54:00Z,28.1930,-82.7890,31.39,1111122 
COMPS,ioos:station:USF.COMPS:ANC:1,2009-08-09T23:00:00Z,28.1930,-82.7890,31.32,1111122 
COMPS,ioos:station:USF.COMPS:ANC:1,2009-08-09T23:06:00Z,28.1930,-82.7890,31.43,1111122 
COMPS,ioos:station:USF.COMPS:ANC:1,2009-08-09T23:12:00Z,28.1930,-82.7890,31.43,1111122 
COMPS,ioos:station:USF.COMPS:ANC:1,2009-08-09T23:18:00Z,28.1930,-82.7890,31.4,1111122 
COMPS,ioos:station:USF.COMPS:ANC:1,2009-08-09T23:24:00Z,28.1930,-82.7890,31.65,1111122 
COMPS,ioos:station:USF.COMPS:ANC:1,2009-08-09T23:30:00Z,28.1930,-82.7890,31.5,1111122 
COMPS,ioos:station:USF.COMPS:ANC:1,2009-08-09T23:36:00Z,28.1930,-82.7890,31.44,1111122 
COMPS,ioos:station:USF.COMPS:ANC:1,2009-08-09T23:42:00Z,28.1930,-82.7890,31.4,1111122 
COMPS,ioos:station:USF.COMPS:ANC:1,2009-08-09T23:48:00Z,28.1930,-82.7890,31.38,1111122 
COMPS,ioos:station:USF.COMPS:ANC:1,2009-08-09T23:54:00Z,28.1930,-82.7890,31.41,1111122 
COMPS,ioos:station:USF.COMPS:ANC:1,2009-08-10T00:00:00Z,28.1930,-82.7890,31.39,1111122 
COMPS,ioos:station:USF.COMPS:ANC:1,2009-08-10T00:06:00Z,28.1930,-82.7890,31.33,1111122 
COMPS,ioos:station:USF.COMPS:ANC:1,2009-08-10T00:12:00Z,28.1930,-82.7890,31.35,1111122 
COMPS,ioos:station:USF.COMPS:ANC:1,2009-08-10T00:18:00Z,28.1930,-82.7890,31.36,1111122 
COMPS,ioos:station:USF.COMPS:ANC:1,2009-08-10T00:24:00Z,28.1930,-82.7890,31.55,1111122 
COMPS,ioos:station:USF.COMPS:ANC:1,2009-08-10T00:30:00Z,28.1930,-82.7890,31.35,1111122 
COMPS,ioos:station:USF.COMPS:ANC:1,2009-08-10T00:36:00Z,28.1930,-82.7890,31.4,1111122 
COMPS,ioos:station:USF.COMPS:ANC:1,2009-08-10T00:42:00Z,28.1930,-82.7890,31.35,1111122 
COMPS,ioos:station:USF.COMPS:ANC:1,2009-08-10T00:48:00Z,28.1930,-82.7890,31.36,1111122 
COMPS,ioos:station:USF.COMPS:ANC:1,2009-08-10T00:54:00Z,28.1930,-82.7890,31.47,1111122 
COMPS,ioos:station:USF.COMPS:ANC:1,2009-08-10T01:00:00Z,28.1930,-82.7890,31.47,1111122 
COMPS,ioos:station:USF.COMPS:ANC:1,2009-08-10T01:06:00Z,28.1930,-82.7890,31.43,1111122 